Content
SEND FEEDBACK

Daily
Averages
Monthly
Summary
United States of America

NAPERVILLE, ILLINOIS


Home > North America > United States > Illinois
Elevation: 687 feet     Latitude: 41 49N     Longitude: 088 04W

WEATHER
 
SELECT A DAY
Number of Records: 196,575;   Date Range: 1/1/95 - 7/29/14
 
SHARE

PRINT THIS DATA

[ ← Previous Day ]
WEATHER ALMANAC - JULY 1, 2013
[ Next Day → ]
[ °C ]   °F
We're sorry. There is no daily almanac available for Naperville, Illinois on July 1, 2013.
WEATHER BY HOUR - JULY 1, 2013
[ °C ]   °F
Local TimeTemperatureDewpointHumidityBarometerVisibilityWind DirectionWind SpeedGust SpeedPrecipitationEventsConditions
1:51 AM64.0 °F52.0 °F65 %29.97 in10.0 miNNE (20°)10.4 mphPartly Cloudy
2:51 AM62.1 °F54.0 °F75 %29.98 in10.0 miNNE (20°)6.9 mphClear
3:51 AM61.0 °F53.1 °F75 %29.99 in10.0 miNorth (10°)6.9 mphScattered Clouds
4:51 AM60.1 °F53.1 °F78 %29.99 in10.0 miNorth (360°)5.8 mphScattered Clouds
5:51 AM60.1 °F52.0 °F75 %30.01 in10.0 miNorth (10°)5.8 mphScattered Clouds
6:51 AM62.1 °F53.1 °F72 %30.02 in10.0 miNorth (10°)9.2 mphScattered Clouds
7:51 AM66.9 °F51.1 °F57 %30.03 in10.0 miNNE (30°)11.5 mphScattered Clouds
8:51 AM70.0 °F48.0 °F46 %30.04 in10.0 miNNE (30°)12.7 mphScattered Clouds
9:51 AM71.1 °F46.9 °F42 %30.04 in10.0 miNE (40°)18.4 mph24.2 mphMostly Cloudy
10:51 AM72.0 °F48.0 °F43 %30.04 in10.0 miNE (40°)16.1 mphMostly Cloudy
11:51 AM73.0 °F48.9 °F42 %30.04 in10.0 miNE (50°)17.3 mphScattered Clouds
12:51 PM73.0 °F48.0 °F41 %30.04 in10.0 miNE (50°)17.3 mph24.2 mphMostly Cloudy
1:51 PM73.9 °F48.9 °F41 %30.04 in10.0 miNNE (30°)17.3 mph26.5 mphMostly Cloudy
2:51 PM75.0 °F48.9 °F40 %30.04 in10.0 miNE (40°)21.9 mph27.6 mphMostly Cloudy
3:51 PM73.9 °F50.0 °F43 %30.04 in10.0 miNE (40°)17.3 mph24.2 mphMostly Cloudy
4:51 PM73.9 °F51.1 °F45 %30.04 in10.0 miNNE (30°)18.4 mph24.2 mphMostly Cloudy
5:51 PM73.9 °F51.1 °F45 %30.04 in10.0 miNNE (30°)16.1 mphMostly Cloudy
6:51 PM72.0 °F52.0 °F49 %30.04 in10.0 miNNE (30°)11.5 mph21.9 mphScattered Clouds
7:51 PM69.1 °F52.0 °F54 %30.05 in10.0 miNNE (30°)12.7 mph24.2 mphScattered Clouds
8:51 PM66.0 °F52.0 °F60 %30.05 in10.0 miNNE (20°)10.4 mphScattered Clouds
9:51 PM64.0 °F54.0 °F70 %30.06 in10.0 miNNE (20°)9.2 mphScattered Clouds
10:51 PM63.0 °F55.0 °F75 %30.06 in10.0 miNNE (20°)8.1 mphScattered Clouds
11:51 PM63.0 °F55.0 °F75 %30.06 in10.0 miNNE (20°)6.9 mphScattered Clouds
Hourly data recorded from KORD, located miles away from Naperville, Illinois







STORIES FROM OUR PARTNERS